Raduga

operational
NORAD ID: 22836 Int'l Des: 1993-062 Owner: VKS Country: RU
HEOCIRCULARGSO

Radugaについて

説明を読み込み中...

リアルタイム位置

3D地球を読み込み中...

次回通過

高度履歴

Altitude vs Time

uPlot chart will show altitude changes over time

軌道要素

1 22836U 93062A 26061.66217589 -.00000174 00000-0 00000-0 0 9993
2 22836 14.0640 347.9345 0005947 320.2219 171.4033 1.00277585 44931
Epoch: Mar 2, 2026 • Age: 29 hours

現在のステータス

高度 35761.2 km
速度 3.08 km/s
衛星直下点 -5.80°S, 81.43°E
打ち上げ日 Sep 30, 1993
運用期間 32.4 years
タイプ other

技術仕様

分類 Payload
質量 1965.00 kg
乾燥質量 1800.00 kg
総質量 1965.00 kg
長さ 5.50 m
直径 2.50 m
スパン 9.50 m
形状 Step Cyl + 2 Pan
製造者 NPOPM
バスタイプ Raduga
フェーズステータス In Orbit
所有者/国 VKS/RU

大規模コンステレーション

Loading constellations...